SL-14 DEB, 45294

Orbit data source: Space-Track

SL-14 DEB, 45294 is space debris in LEO originally from a launch on Thu, 15 Aug 1991 UTC launched from the Plesetsk Missile And Space Complex (PKMTR). Debris objects in space refer to the collection of defunct objects orbiting the Earth. Examples of debris include non-operational satellites, rocket bodies, and fragments generated from explosions, collisions, or faulty payload assembly.

Loading next visibility...
Identifier
45294, 1991-056AG
Orbit
LEO
Country
Flag of CISCIS
Related business
Manufacturer
Unknown
Mission
Spacecraft
Bus & Motor
Unknown
Mass
Unknown
Launch date (UTC)
1991-08-15 (34 years ago)
Launch vehicle
Unknown
Launch site
Plesetsk Missile And Space Complex (PKMTR)
Object type
Payload
Rocket body
Debris
Shape & HBR
Unknown shape, 0.1 m
Radar Cross Section
Small (<0.1 m²)

Expand to show TLE details & history
Last TLE update: 6 hours ago

TLE from 6 hours ago
0 SL-14 DEB
1 45294U 91056AG  25304.26347447  .00001094  00000-0  26451-2 0  9990
2 45294  82.5659 298.8514 0009122 340.7323  19.3455 13.21130712273532
Epoch: 2025-10-31T06:19Z
TLE epoch observation values (Epoch: 2025-10-31T06:19:24.194Z)
Latitude
-0.00006°
Longitude
164.19017°
Altitude
1,176.712 km
Speed
7.268 km/s
True Right ascension
19h 55m 24s
True Declination
0° 00' 00"
Sunlit
Object was in daylight at epoch
Visualization orbit readout
Latitude
Unknown
Longitude
Unknown
Altitude
Unknown
Speed
Unknown
Apparent Right ascension
Unknown
Apparent Declination
Unknown
Sunlit
N/A
Visualization observer readout
Local Sidereal Time
08:06:35
Azimuth
Unknown
Elevation
Unknown
Doppler factor
Unknown
Orbital elements
Apogee altitude
1,184.535 km
Perigee altitude
1,170.75 km
Semi-major axis
7,555.78 km
Eccentricity
0.00091
Inclination
82.5659°
RAAN
298.8514°
Arg. of periapsis
340.7323°
True anomaly
19.38016°
Mean anomaly
19.3455°
Eccentric anomaly
19.36283°
Mean motion
3.30464 °/min
Orbital period
108.94 mins
BSTAR
0.0026451
Loading maneuver chart data...
Computing Atmospheric mass density...
Loading historical data...
Loading historical data...
Loading historical data...
Loading historical data...
Loading historical data...
Loading historical data...
Loading historical data...

Documentation

Showing up to 5 results
|